Weather History for Red Wing, MN

Change the Weather History Date:

Friday, June 14, 2013

  Actual Average Record
Temperature  
Mean Temperature 68 °F -  
Max Temperature 78 °F 74 °F 91 °F (2007)
Min Temperature 57 °F 53 °F 48 °F (1999)
Cooling Degree Days 2    
Growing Degree Days 18 (Base 50)    
Moisture  
Dew Point 56 °F    
Average Humidity 63    
Maximum Humidity 88    
Minimum Humidity 47    
Precipitation  
Precipitation 0.00 in - - ()
Sea Level Pressure  
Sea Level Pressure 30.01 in    
Wind  
Wind Speed 7 mph (SE)    
Max Wind Speed 14 mph    
Max Gust Speed 18 mph    
Visibility 10 miles    
Events      
Averages and records for this station are not official NWS values.
T = Trace of Precipitation, MM = Missing Value Source: NWS Daily Summary

Daily Weather History Graph

Daily Weather History Graph

Search for Another Location

Airport:

Trip Planner

Search our weather history database for the weather conditions in past years. The results will help you decide how hot, cold, wet, or windy it might be!

Date:

Astronomy

Jun. 14, 2013 Rise Set
Actual Time 5:24 AM CDT 8:56 PM CDT
Civil Twilight 4:47 AM CDT 9:33 PM CDT
Nautical Twilight 3:58 AM CDT 10:22 PM CDT
Astronomical Twilight 2:55 AM CDT 11:25 PM CDT
Moon 11:11 AM CDT (6/14) No Moon Set
Length of Visible Light 16h 46m
Length of Day
15h 32m
Waxing Crescent, 30% of the Moon is Illuminated
Jun 14
Waxing Crescent
Jun 16
First Quarter
Jun 23
Full
Jun 29
Last Quarter
Jul 8
New

Hourly Weather History & Observations

Time (CDT) Temp. Dew Point Humidity Pressure Visibility Wind Dir Wind Speed Gust Speed Precip Events Conditions
12:15 AM 62.6 °F 51.8 °F 68% 30.08 in 10.0 mi SSE 3.5 mph - N/A   Clear
12:35 AM 60.8 °F 51.8 °F 72% 30.08 in 10.0 mi Calm Calm - N/A   Clear
12:55 AM 60.8 °F 51.8 °F 72% 30.08 in 10.0 mi Calm Calm - N/A   Clear
1:15 AM 60.8 °F 51.8 °F 72% 30.08 in 10.0 mi East 3.5 mph - N/A   Clear
1:35 AM 60.8 °F 51.8 °F 72% 30.08 in 10.0 mi East 3.5 mph - N/A   Clear
1:55 AM 57.2 °F 51.8 °F 82% 30.07 in 10.0 mi East 6.9 mph - N/A   Clear
2:15 AM 57.2 °F 51.8 °F 82% 30.06 in 10.0 mi East 5.8 mph - N/A   Clear
2:35 AM 59.0 °F 51.8 °F 77% 30.05 in 10.0 mi East 5.8 mph - N/A   Clear
2:55 AM 60.8 °F 51.8 °F 72% 30.05 in 10.0 mi ESE 6.9 mph - N/A   Clear
3:15 AM 60.8 °F 51.8 °F 72% 30.06 in 10.0 mi ESE 4.6 mph - N/A   Clear
3:35 AM 60.8 °F 51.8 °F 72% 30.07 in 10.0 mi East 3.5 mph - N/A   Clear
3:55 AM 59.0 °F 51.8 °F 77% 30.07 in 10.0 mi East 5.8 mph - N/A   Clear
4:15 AM 60.8 °F 51.8 °F 72% 30.07 in 10.0 mi East 5.8 mph - N/A   Clear
4:35 AM 60.8 °F 51.8 °F 72% 30.07 in 10.0 mi East 8.1 mph - N/A   Clear
4:55 AM 60.8 °F 51.8 °F 72% 30.09 in 10.0 mi Calm Calm - N/A   Clear
5:15 AM 59.0 °F 51.8 °F 77% 30.10 in 10.0 mi Calm Calm - N/A   Clear
5:35 AM 57.2 °F 51.8 °F 82% 30.09 in 10.0 mi East 5.8 mph - N/A   Clear
5:55 AM 57.2 °F 53.6 °F 88% 30.08 in 10.0 mi East 4.6 mph - N/A   Clear
6:15 AM 59.0 °F 53.6 °F 82% 30.08 in 10.0 mi East 5.8 mph - N/A   Clear
6:35 AM 60.8 °F 53.6 °F 77% 30.07 in 10.0 mi ESE 8.1 mph - N/A   Clear
6:55 AM 62.6 °F 53.6 °F 72% 30.06 in 10.0 mi SE 13.8 mph 17.3 mph N/A   Clear
7:15 AM 64.4 °F 53.6 °F 68% 30.06 in 10.0 mi SE 11.5 mph - N/A   Clear
7:35 AM 64.4 °F 55.4 °F 73% 30.06 in 10.0 mi ESE 12.7 mph 16.1 mph N/A   Clear
7:55 AM 64.4 °F 55.4 °F 73% 30.08 in 10.0 mi SE 11.5 mph - N/A   Clear
8:15 AM 66.2 °F 55.4 °F 68% 30.09 in 10.0 mi SE 9.2 mph - N/A   Clear
8:35 AM 66.2 °F 55.4 °F 68% 30.10 in 10.0 mi SE 6.9 mph - N/A   Clear
8:55 AM 66.2 °F 55.4 °F 68% 30.10 in 10.0 mi SE 10.4 mph - N/A   Clear
9:15 AM 68.0 °F 55.4 °F 64% 30.10 in 10.0 mi SE 9.2 mph - N/A   Clear
9:35 AM 68.0 °F 55.4 °F 64% 30.07 in 10.0 mi SE 11.5 mph - N/A   Clear
9:55 AM 66.2 °F 55.4 °F 68% 30.09 in 10.0 mi SE 6.9 mph - N/A   Clear
10:15 AM 69.8 °F 57.2 °F 64% 30.08 in 10.0 mi SE 9.2 mph - N/A   Clear
10:35 AM 71.6 °F 57.2 °F 60% 30.06 in 10.0 mi ESE 11.5 mph 16.1 mph N/A   Clear
10:55 AM 71.6 °F 57.2 °F 60% 30.06 in 10.0 mi ESE 10.4 mph - N/A   Clear
11:15 AM 73.4 °F 59.0 °F 61% 30.06 in 10.0 mi SE 10.4 mph 16.1 mph N/A   Clear
11:35 AM 73.4 °F 59.0 °F 61% 30.06 in 10.0 mi SE 11.5 mph - N/A   Clear
11:55 AM 73.4 °F 57.2 °F 57% 30.05 in 10.0 mi SE 12.7 mph 17.3 mph N/A   Clear
12:15 PM 75.2 °F 57.2 °F 53% 30.04 in 10.0 mi ESE 12.7 mph - N/A   Clear
12:35 PM 75.2 °F 59.0 °F 57% 30.04 in 10.0 mi SE 11.5 mph - N/A   Scattered Clouds
12:55 PM 75.2 °F 59.0 °F 57% 30.03 in 10.0 mi SE 13.8 mph - N/A   Scattered Clouds
1:15 PM 75.2 °F 59.0 °F 57% 30.03 in 10.0 mi SE 12.7 mph - N/A   Scattered Clouds
1:35 PM 75.2 °F 55.4 °F 50% 30.02 in 10.0 mi SSE 12.7 mph - N/A   Scattered Clouds
1:55 PM 77.0 °F 55.4 °F 47% 30.02 in 10.0 mi South 10.4 mph - N/A   Scattered Clouds
2:15 PM 77.0 °F 57.2 °F 50% 30.02 in 10.0 mi South 9.2 mph 17.3 mph N/A   Scattered Clouds
2:35 PM 77.0 °F 57.2 °F 50% 30.02 in 10.0 mi South 10.4 mph 16.1 mph N/A   Scattered Clouds
2:55 PM 77.0 °F 57.2 °F 50% 30.01 in 10.0 mi South 10.4 mph 18.4 mph N/A   Scattered Clouds
3:15 PM 77.0 °F 57.2 °F 50% 29.98 in 10.0 mi SSE 12.7 mph 17.3 mph N/A   Clear
3:35 PM 77.0 °F 57.2 °F 50% 29.98 in 10.0 mi SSE 11.5 mph 18.4 mph N/A   Scattered Clouds
3:55 PM 78.8 °F 57.2 °F 47% 29.97 in 10.0 mi SSE 12.7 mph - N/A   Clear
4:15 PM 78.8 °F 57.2 °F 47% 29.96 in 10.0 mi South 13.8 mph - N/A   Clear
4:35 PM 78.8 °F 57.2 °F 47% 29.94 in 10.0 mi SSE 11.5 mph 18.4 mph N/A   Clear
4:55 PM 78.8 °F 57.2 °F 47% 29.95 in 10.0 mi SSE 12.7 mph - N/A   Clear
5:15 PM 78.8 °F 57.2 °F 47% 29.95 in 10.0 mi South 10.4 mph 18.4 mph N/A   Clear
5:35 PM 78.8 °F 57.2 °F 47% 29.94 in 10.0 mi SSE 10.4 mph - N/A   Clear
5:55 PM 77.0 °F 57.2 °F 50% 29.94 in 10.0 mi South 11.5 mph - N/A   Clear
6:15 PM 77.0 °F 57.2 °F 50% 29.94 in 10.0 mi SE 9.2 mph - N/A   Clear
6:35 PM 75.2 °F 57.2 °F 53% 29.94 in 10.0 mi SE 8.1 mph 16.1 mph N/A   Scattered Clouds
6:55 PM 75.2 °F 57.2 °F 53% 29.93 in 10.0 mi SE 11.5 mph 16.1 mph N/A   Scattered Clouds
7:15 PM 75.2 °F 57.2 °F 53% 29.93 in 10.0 mi SE 11.5 mph - N/A   Scattered Clouds
7:35 PM 73.4 °F 59.0 °F 61% 29.93 in 10.0 mi SE 9.2 mph - N/A   Scattered Clouds
7:55 PM 73.4 °F 57.2 °F 57% 29.92 in 10.0 mi ESE 11.5 mph - N/A   Mostly Cloudy
8:15 PM 73.4 °F 59.0 °F 61% 29.92 in 10.0 mi SE 10.4 mph - N/A   Scattered Clouds
8:35 PM 73.4 °F 59.0 °F 61% 29.92 in 10.0 mi SE 8.1 mph - N/A   Scattered Clouds
8:55 PM 73.4 °F 57.2 °F 57% 29.92 in 10.0 mi SE 8.1 mph - N/A   Mostly Cloudy
9:15 PM 73.4 °F 59.0 °F 61% 29.93 in 10.0 mi SE 6.9 mph - N/A   Overcast
9:35 PM 71.6 °F 59.0 °F 64% 29.94 in 10.0 mi SE 5.8 mph - N/A   Overcast
9:55 PM 71.6 °F 59.0 °F 64% 29.93 in 10.0 mi SE 5.8 mph - N/A   Scattered Clouds
10:15 PM 71.6 °F 59.0 °F 64% 29.91 in 10.0 mi SE 8.1 mph - N/A   Scattered Clouds
10:35 PM 71.6 °F 57.2 °F 60% 29.88 in 10.0 mi SE 11.5 mph - N/A   Clear
10:55 PM 69.8 °F 59.0 °F 68% 29.88 in 10.0 mi ESE 11.5 mph - N/A   Clear
11:15 PM 69.8 °F 59.0 °F 68% 29.90 in 10.0 mi SE 10.4 mph - N/A   Mostly Cloudy
11:35 PM 69.8 °F 59.0 °F 68% 29.90 in 10.0 mi SE 6.9 mph - N/A   Scattered Clouds
11:55 PM 69.8 °F 57.2 °F 64% 29.88 in 10.0 mi ESE 8.1 mph - N/A   Clear